Probability
0 0 0 0 0 0 0 0 0 0 0 0 0 0 0 0 0 1 3 3 1 3 6 7 6 4 3 3 3 2 1 1 0 0 0 0 0 0 0 0 1 1 1 1 0 0 0 0 0
0 0 0 0 0 0 0 0 0 0 0 0 0 0 0 0 0 1 3 4 2 3 5 7 7 5 3 3 3 3 2 2 1 0 0 0 0 0 0 0 0 0 1 1 1 0 0 0 0
0 0 0 0 0 0 0 0 1 0 0 0 0 0 0 0 0 1 3 5 4 3 5 7 8 5 3 3 3 3 3 2 1 0 0 0 0 0 0 0 0 0 0 1 1 1 0 0 0
0 0 0 0 0 0 0 0 0 0 0 0 0 0 0 1 1 1 3 4 4 3 4 7 8 6 4 3 3 4 3 2 1 0 0 0 0 0 0 0 0 0 0 0 1 1 0 0 0
0 0 0 0 0 0 0 0 0 0 0 0 0 0 1 2 3 3 3 3 3 3 4 6 8 7 5 4 4 5 4 3 1 0 0 0 0 0 0 0 0 0 0 0 0 0 0 0 1
0 0 0 0 0 0 0 0 0 0 0 0 0 0 2 4 6 6 5 3 3 3 4 5 7 7 6 5 5 6 5 3 1 0 0 0 0 0 0 0 1 1 1 0 0 0 0 0 1
0 0 0 0 0 0 0 0 0 0 0 0 0 1 3 6 7 7 6 4 4 4 4 4 5 6 5 5 6 6 6 4 2 1 0 0 0 0 0 0 1 2 1 0 0 0 0 0 1
0 0 0 0 0 0 0 0 0 0 0 0 0 2 5 8 9 8 7 5 6 6 6 4 4 3 3 3 5 6 6 5 3 2 0 0 0 0 0 0 1 1 1 0 0 0 0 0 0
0 0 0 0 0 0 0 0 0 0 0 0 1 4 7 11 12 11 8 7 8 9 8 6 4 3 1 1 2 3 4 4 3 1 0 0 0 0 0 0 0 0 0 0 0 0 0 0 0
0 0 0 0 0 0 0 0 0 0 0 1 3 8 12 13 12 11 9 8 9 10 9 7 5 3 1 0 1 1 1 1 1 0 0 0 0 0 0 0 0 0 0 0 0 0 0 0 0
0 0 0 0 0 0 0 0 0 0 0 2 6 13 16 13 10 8 7 8 9 10 9 7 5 3 1 0 1 1 0 0 0 0 0 0 0 0 0 0 0 0 0 0 0 0 0 0 0
0 0 0 0 0 0 0 0 0 0 1 3 8 13 14 12 8 6 6 7 9 10 9 7 6 4 2 1 1 1 0 0 0 0 0 0 0 0 0 0 0 0 0 0 0 0 0 0 0
0 0 0 0 0 0 0 0 0 0 1 3 7 9 9 9 8 6 5 7 9 9 8 7 6 5 4 3 1 1 1 1 1 1 0 0 0 1 1 1 1 1 0 0 0 0 1 1 0
0 0 0 0 0 0 0 0 0 0 0 1 3 5 6 7 7 5 4 6 8 10 9 8 7 6 6 5 3 2 2 3 4 4 4 4 3 3 3 3 3 2 1 0 0 1 2 1 1
0 0 0 0 0 0 0 0 0 0 0 0 2 3 4 5 6 5 5 6 8 10 11 10 8 7 7 6 4 3 4 6 8 10 11 11 9 7 6 6 5 4 3 2 0 1 1 1 0
0 0 0 0 0 0 0 1 1 1 0 1 2 3 4 5 5 7 8 8 8 9 12 11 9 8 7 6 5 4 6 8 11 12 13 13 11 9 9 8 7 6 5 4 2 2 1 0 0
0 0 0 0 0 0 0 1 2 1 0 1 3 3 4 4 5 7 9 9 7 7 9 12 11 10 8 7 6 5 6 8 10 11 11 9 8 8 8 8 7 6 6 6 5 4 3 1 1
0 0 0 0 0 0 0 1 2 1 1 2 3 3 3 4 4 4 6 7 6 6 9 12 13 11 8 6 6 6 7 8 10 10 8 6 5 4 5 5 5 6 6 6 6 6 4 3 2
0 0 0 0 0 0 1 2 3 3 3 4 3 3 3 4 4 3 3 4 5 7 10 12 12 11 8 6 6 6 7 9 11 11 8 6 3 2 2 2 2 3 4 5 5 5 4 3 3
0 0 0 0 0 0 1 3 4 4 5 5 4 4 4 5 5 5 5 4 5 8 10 11 10 8 7 7 6 6 8 10 12 11 9 6 3 1 1 1 1 1 1 2 2 3 3 3 3
0 0 0 0 0 0 1 2 3 4 5 5 4 4 4 4 5 5 7 7 6 8 9 9 8 7 7 8 8 8 9 11 12 11 9 6 4 3 2 2 1 1 0 0 0 1 2 3 4
0 0 0 0 0 0 0 0 2 4 4 5 5 5 4 3 3 4 6 8 6 7 9 9 9 10 10 10 9 10 11 12 11 10 9 7 5 3 3 3 2 2 2 1 0 1 2 3 3
0 0 0 0 0 0 0 0 1 3 5 6 6 6 5 3 4 4 5 6 5 6 9 11 12 14 13 11 10 10 12 12 11 9 8 7 4 3 3 3 3 3 4 3 2 2 3 3 4
0 0 0 0 0 0 0 0 1 2 3 5 6 7 6 6 6 6 5 5 5 5 8 11 14 15 15 13 11 10 12 12 9 7 6 6 4 4 3 3 4 5 5 5 5 5 4 4 4
0 0 0 0 0 0 0 0 1 2 3 4 6 8 9 9 8 7 6 5 5 7 8 11 14 16 18 17 13 12 13 11 7 5 5 5 5 6 6 5 6 8 7 6 7 6 5 4 4
0 0 0 0 0 0 0 0 2 4 4 4 6 9 11 10 9 8 7 8 9 10 10 11 12 16 19 19 17 14 13 12 9 7 7 6 6 8 9 10 11 10 8 7 8 7 6 4 4
0 0 0 0 0 0 0 0 1 4 5 6 7 9 10 10 8 8 9 11 13 14 13 12 12 15 17 19 18 16 14 13 12 11 10 7 7 9 12 14 14 12 9 9 11 10 8 6 6
0 0 0 0 0 0 0 0 0 2 5 7 8 9 10 9 8 9 10 13 17 18 16 13 13 15 16 17 18 18 15 13 13 12 11 9 9 12 15 16 16 14 12 13 13 12 10 8 7
0 0 0 0 0 0 0 1 2 3 5 6 8 10 11 11 11 11 11 12 15 18 17 14 13 14 15 16 17 18 18 17 15 13 11 10 10 13 14 15 15 16 16 16 16 14 12 9 7
0 0 0 0 0 0 1 4 6 6 5 5 7 10 12 13 13 13 11 11 13 16 17 15 14 14 14 15 16 18 20 20 17 14 11 10 10 12 13 14 15 16 18 19 18 16 14 10 6
Wind_Speed
10 9 7 6 7 2 5 6 5 4 5 6 5 4 6 8 8 7 7 8 8 9 11 11 8 7 7 7 6 6 6 6 6 6 6 5 5 5 4 4 4 4 4 3 3 4 3 3 4
8 7 7 7 4 2 6 6 5 6 6 4 4 3 4 7 7 7 7 8 9 9 10 9 10 7 7 7 7 7 7 6 6 5 5 5 5 4 4 4 4 4 4 3 3 3 3 2 3
7 8 7 5 1 3 6 6 5 5 4 2 3 4 5 6 6 6 8 10 9 9 10 11 9 7 7 7 7 7 6 6 6 5 5 5 4 4 4 4 4 4 4 3 3 3 2 2 2
6 7 7 3 3 5 4 4 3 4 3 2 2 4 5 6 4 7 10 10 9 9 10 12 9 7 7 7 6 6 6 5 5 4 4 4 4 3 3 3 3 3 3 3 3 2 1 2 2
7 6 5 3 3 3 3 2 1 2 2 2 2 5 6 6 6 9 10 9 8 8 9 12 9 7 6 6 6 5 5 5 4 4 4 3 3 3 2 2 2 3 3 3 3 3 1 1 1
6 6 5 3 4 3 3 1 1 1 3 3 3 5 6 7 8 9 10 8 8 8 8 11 10 7 6 6 5 5 4 4 4 3 3 3 3 3 3 3 3 3 3 3 3 3 2 2 1
7 5 3 2 3 3 3 1 1 1 2 3 2 4 7 8 8 9 9 8 8 7 7 8 9 9 8 6 5 4 4 3 3 3 3 3 3 3 3 4 4 3 3 2 2 2 2 1 1
6 5 5 3 2 3 3 2 1 1 2 4 2 2 6 9 9 9 9 8 8 7 6 6 6 6 7 8 7 4 4 3 3 3 3 2 2 3 2 2 3 2 2 2 2 1 1 1 1
7 7 4 2 2 3 3 1 2 1 3 3 2 3 8 13 11 10 9 8 8 6 5 5 5 5 4 4 6 6 5 4 4 4 3 3 2 2 3 4 4 3 2 1 1 1 1 1 2
7 6 2 1 2 0 1 1 1 3 5 5 5 7 11 13 12 11 10 9 9 8 6 5 4 4 4 3 4 3 3 3 2 1 1 0 1 1 1 4 2 1 1 0 1 1 2 3 1
6 5 1 2 2 2 3 2 1 3 3 2 5 10 12 12 12 11 10 8 8 8 6 5 4 3 3 3 2 1 1 2 2 1 0 1 1 0 0 0 2 2 2 1 2 1 0 1 1
6 4 4 3 2 4 3 3 2 2 2 3 5 10 12 12 11 10 9 8 7 7 6 5 4 3 2 2 1 1 1 1 1 1 1 1 1 1 1 1 1 1 1 1 1 1 2 2 1
8 4 3 3 4 4 4 4 2 2 2 4 7 10 11 11 10 8 8 7 7 6 6 5 4 3 2 2 1 1 1 1 1 0 0 1 1 1 1 1 1 2 1 0 0 1 1 1 1
3 4 4 4 4 4 5 4 4 3 4 6 8 9 10 9 9 8 8 7 7 6 5 4 4 4 3 2 1 1 1 1 0 0 0 1 1 1 2 1 1 1 1 1 1 1 1 1 1
5 6 7 5 4 4 6 7 5 5 5 7 7 8 8 8 8 8 8 7 7 6 5 5 5 4 3 2 2 2 1 1 0 0 0 1 1 1 2 1 1 1 1 0 0 0 0 0 1
9 10 9 6 4 4 9 7 6 7 7 7 7 7 8 8 8 7 7 6 6 6 6 5 4 5 4 2 1 1 1 0 0 0 0 1 1 2 2 1 1 1 1 1 0 1 1 1 1
10 10 7 6 4 4 9 5 5 7 7 7 7 7 8 8 7 7 7 6 6 6 6 6 5 5 4 3 2 1 1 0 1 0 0 0 1 2 2 1 1 1 1 1 1 1 1 1 1
7 8 7 6 3 5 8 5 4 7 7 7 7 7 7 8 7 6 6 6 6 6 6 6 5 4 4 4 3 2 1 1 1 0 0 1 1 2 2 1 1 2 1 1 0 1 1 1 1
5 7 8 4 2 5 7 6 4 6 7 7 7 7 7 7 6 6 6 6 7 6 6 6 6 5 4 3 3 2 2 2 1 1 0 1 2 1 2 2 1 2 1 1 2 1 2 2 1
8 9 8 5 3 5 5 5 3 5 7 7 7 6 6 7 7 6 6 7 7 8 7 7 6 5 5 3 2 2 1 1 1 1 0 2 2 2 2 2 2 2 1 2 2 2 2 2 1
10 9 7 5 4 6 6 7 6 6 6 7 7 6 6 7 7 6 6 7 7 8 8 6 6 5 4 3 3 2 2 3 2 2 1 1 2 2 2 2 2 2 3 2 2 3 3 3 2
9 7 7 6 8 6 7 6 5 6 6 7 7 8 7 7 6 7 7 6 6 7 7 6 6 5 4 4 3 3 2 2 1 1 1 1 1 2 2 2 2 3 2 2 3 2 3 3 3
6 4 7 8 9 8 8 8 4 7 6 6 6 7 7 7 6 6 6 7 6 6 6 6 6 5 4 4 3 3 3 2 1 1 1 2 1 1 2 2 2 2 2 2 3 2 3 3 3
4 5 6 9 9 10 7 8 4 4 4 5 5 5 6 6 6 6 6 5 5 5 5 6 6 5 4 4 3 3 3 2 2 2 1 2 1 1 1 2 2 2 2 2 3 3 3 3 3
9 9 7 9 9 7 4 7 2 1 2 3 4 5 5 5 5 6 6 6 5 5 5 5 5 6 5 5 4 3 3 3 3 3 2 2 2 1 1 2 2 2 2 2 2 2 3 2 2
10 12 8 7 6 4 6 5 2 3 2 1 2 3 5 6 6 6 6 5 5 5 5 4 4 4 4 4 3 3 3 3 2 2 2 2 2 1 1 2 2 2 2 2 1 2 2 1 2
9 10 7 9 8 7 4 3 4 4 4 3 3 4 5 6 6 6 6 6 5 5 4 4 4 4 4 3 3 3 3 3 2 3 3 2 1 1 1 1 1 1 1 2 1 1 1 1 2
7 6 7 9 7 8 5 6 3 4 4 4 4 3 4 6 6 6 6 6 5 5 4 3 3 4 3 3 3 2 3 3 3 3 2 2 1 1 1 1 1 1 1 1 1 1 1 1 1
8 7 7 7 8 8 6 1 4 2 2 2 3 3 4 6 6 6 5 5 5 5 4 4 3 3 2 2 2 2 2 2 3 2 2 2 2 1 1 1 1 1 1 1 1 1 1 1 1
5 6 8 8 7 7 8 0 6 3 2 2 2 3 4 5 6 6 6 5 5 4 4 4 3 2 2 2 2 1 1 1 2 2 2 1 1 1 1 2 2 2 1 1 2 2 2 2 1
Wind_Direction
184 190 212 231 235 187 73 70 55 68 68 57 46 31 34 29 17 54 91 118 122 126 125 134 128 128 125 122 121 118 113 109 105 101 102 103 104 102 101 98 95 101 109 124 133 135 141 138 146
189 195 226 240 258 108 83 69 67 56 69 89 83 61 60 65 54 89 118 124 134 127 129 127 126 127 123 122 120 118 115 110 106 104 103 99 97 98 97 96 91 92 98 110 126 130 137 139 145
196 226 255 250 13 42 70 72 71 79 102 109 92 55 42 60 81 101 117 138 139 132 127 118 131 129 124 122 120 119 116 112 106 101 98 94 93 92 93 91 90 89 87 91 107 117 135 148 141
217 222 234 239 94 59 56 73 87 120 129 115 114 95 82 61 80 106 129 145 141 133 126 121 133 130 126 122 120 119 117 114 111 105 98 95 92 89 86 89 97 97 92 87 82 91 130 148 145
239 249 223 173 107 77 71 76 143 151 129 120 132 102 93 85 100 122 138 143 139 130 125 124 134 133 129 124 120 117 114 113 114 109 100 91 86 77 70 69 112 107 92 85 75 63 75 123 138
237 240 225 164 117 103 92 99 182 156 130 133 142 118 94 115 128 135 140 142 134 130 126 126 137 141 137 130 125 120 114 109 111 105 96 82 76 69 61 55 107 110 89 78 71 66 65 74 104
262 251 234 182 133 118 86 93 232 122 146 129 140 119 118 133 130 140 140 140 136 135 133 137 145 150 153 145 134 123 117 112 112 106 96 84 76 72 69 66 83 96 91 80 73 57 50 55 67
277 257 213 198 174 111 105 127 16 300 91 107 170 138 133 139 142 144 143 143 141 140 139 143 147 146 159 151 142 135 128 126 125 119 108 110 131 127 112 117 85 73 77 72 62 47 43 59 60
254 242 213 206 192 119 129 156 94 91 132 141 113 64 110 137 148 152 151 151 146 145 146 150 147 149 157 142 137 156 156 155 176 159 159 206 170 126 142 73 68 52 47 59 58 55 81 169 169
240 239 212 324 309 124 182 232 135 183 173 154 130 111 127 147 158 163 162 160 156 154 154 154 154 153 157 140 145 170 167 150 182 100 143 194 57 41 23 93 96 64 53 128 96 93 189 231 196
239 256 273 254 283 277 233 222 220 227 201 159 160 149 152 160 167 169 166 163 156 151 153 157 153 154 159 151 151 162 157 144 168 142 248 338 319 13 342 45 156 168 184 173 133 193 288 44 17
237 245 269 272 267 251 246 226 211 252 32 58 134 151 160 167 173 171 167 164 157 154 158 151 151 155 158 131 147 184 171 157 159 122 272 300 317 334 359 345 350 341 41 40 8 40 46 37 19
227 231 245 255 243 241 235 218 202 108 79 111 131 150 162 169 170 167 165 163 162 157 153 151 155 139 138 143 201 159 175 182 139 137 335 315 307 330 340 354 338 327 359 65 74 54 65 37 41
240 248 243 232 217 201 217 205 191 139 133 137 145 156 163 168 168 163 168 169 165 159 155 147 162 149 156 159 175 164 168 163 237 178 1 298 316 334 321 324 322 323 338 359 356 36 53 34 22
239 233 217 197 206 201 222 208 197 152 156 151 154 158 163 167 168 170 172 175 170 164 156 155 161 148 158 169 186 175 186 180 197 70 269 285 286 302 297 291 282 318 329 292 265 340 13 50 28
222 225 215 177 202 201 235 227 158 157 169 162 161 161 164 167 173 174 174 177 165 164 158 164 164 154 158 174 203 192 182 165 175 286 55 297 302 293 288 303 305 315 287 291 277 282 19 33 1
214 224 217 175 185 212 237 247 147 170 179 172 168 167 166 164 173 172 175 177 171 168 167 171 174 167 163 170 185 196 179 283 287 291 312 334 292 288 284 298 329 270 270 298 294 36 349 6 339
217 232 223 213 176 227 238 237 165 183 188 183 175 174 172 168 168 166 173 173 169 168 169 174 179 168 173 178 181 196 200 210 242 275 353 312 287 282 284 251 264 268 259 261 316 310 298 289 274
249 243 237 219 185 238 241 243 203 189 195 193 186 182 177 169 158 162 171 172 168 169 172 177 178 166 185 193 206 203 200 206 200 214 318 278 281 276 272 283 231 255 246 273 263 252 227 240 239
235 236 234 206 193 245 238 242 216 196 203 198 193 190 184 170 166 169 172 175 178 177 178 179 179 174 190 182 210 226 247 231 209 246 239 276 276 275 248 263 258 245 238 241 262 271 269 259 261
231 242 241 228 201 220 231 222 201 187 200 198 200 197 191 182 174 172 174 177 180 181 184 183 181 181 190 191 203 197 201 220 204 208 204 249 268 262 282 271 268 262 257 250 253 252 255 267 258
230 234 246 234 231 214 228 249 181 179 190 196 200 200 194 187 183 177 176 177 183 183 179 178 179 183 186 197 211 221 228 238 244 251 222 229 244 267 263 268 261 267 267 259 251 243 268 271 269
244 239 237 238 242 247 222 255 182 173 199 196 197 201 195 186 182 178 176 176 179 179 177 175 176 181 185 200 203 226 241 246 243 252 246 265 235 260 272 265 263 258 264 273 282 274 272 267 276
210 208 218 231 236 239 233 251 228 184 206 200 186 187 188 187 183 176 168 162 164 169 173 170 169 175 184 200 207 226 246 261 270 270 264 246 236 243 260 259 258 257 270 265 265 263 253 271 288
210 225 219 215 220 230 194 242 233 123 179 210 191 182 178 176 171 169 170 170 166 164 163 161 164 175 185 193 207 221 237 242 242 259 250 269 268 251 267 278 268 269 266 265 263 257 275 263 267
217 237 248 254 247 218 183 232 147 119 127 156 173 173 172 171 164 164 163 163 159 158 162 167 171 178 182 186 198 215 233 248 248 257 274 265 279 292 307 268 264 270 269 262 244 245 241 236 247
215 231 259 267 263 256 210 195 174 175 193 185 170 161 161 167 164 158 152 154 153 153 157 167 169 181 190 192 197 206 226 249 262 252 247 254 267 260 238 261 261 263 257 257 248 266 253 222 225
257 231 228 245 250 252 223 220 200 183 190 176 164 150 147 156 157 151 147 151 151 151 151 152 164 177 187 193 209 205 217 229 246 257 263 266 276 289 261 251 252 258 253 246 243 216 172 182 191
199 211 239 250 265 265 252 196 83 158 147 149 145 134 148 154 155 151 151 152 151 150 149 149 154 166 174 182 192 212 218 220 229 243 252 247 261 250 234 249 248 241 226 203 200 224 169 184 183
239 234 232 245 242 254 271 165 92 94 95 120 126 123 131 146 151 148 148 148 149 148 142 137 145 160 166 169 176 182 206 223 232 234 247 236 231 229 221 230 230 231 212 191 195 209 198 193 185